Regional Weather Roundup
Issued by NWS

Home | Current Version | Previous Version | Graphics & Text | Print | Product List | Glossary On
Versions: 1 2 3 4 5 6 7 8 9 10 11 12 13 14 15 16 17 18 19 20 21 22 23 24 25 26 27 28 29 30 31 32 33 34 35 36 37 38 39 40 41 42 43 44 45 46 47 48 49 50
000
ASUS43 KLSX 010210
RWRMO

WEATHER SUMMARY FOR MISSOURI
NATIONAL WEATHER SERVICE SPRINGFIELD MO
900 PM CDT FRI SEP 30 2016

NOTE: "FAIR" INDICATES FEW OR NO CLOUDS BELOW 12,000 FEET WITH NO
       SIGNIFICANT WEATHER AND/OR OBSTRUCTIONS TO VISIBILITY.
       CURRENT SKY AND/OR WEATHER CONDITIONS ARE NOT AVAILABLE FOR
       CHILLICOTHE AND FARMINGTON.

MOZ001>031-035>038-043-044-053-054-010300-
...NORTHERN AND WESTERN MISSOURI...

CITY           SKY/WX    TMP DP  RH WIND       PRES   REMARKS
KANSAS CTY INT MOCLDY    63  52  67 NE10      30.13R
KANSAS C DTWN  CLEAR     63  53  70 NE9       30.11S
LEE`S SUMMIT   CLEAR     63  54  72 E9        30.13R
ST JOSEPH      CLEAR     59  53  80 N3        30.14R
CHILLICOTHE      N/A     63  55  75 N5        30.14F
KIRKSVILLE     CLOUDY    61  55  81 N8        30.14S

$$
MOZ066>068-077>081-088>096-101>105-010300-
...SOUTHWEST MISSOURI...

CITY           SKY/WX    TMP DP  RH WIND       PRES   REMARKS
SPRINGFIELD    CLEAR     58  52  80 CALM      30.10S
JOPLIN         CLEAR     58  54  86 CALM      30.11S
BRANSON        PTCLDY    61  54  77 CALM      30.11S

$$
MOZ032>034-039>042-045>050-055>058-069>072-010300-
...CENTRAL MISSOURI...

CITY           SKY/WX    TMP DP  RH WIND       PRES   REMARKS
COLUMBIA       CLOUDY    63  56  78 N9        30.11S
JEFFERSON CITY CLOUDY    65  56  72 N9        30.10R
ROLLA          CLOUDY    62  56  80 N6        30.09R
SEDALIA        CLEAR     60  54  80 CALM      30.13R
WHITEMAN AFB   PTCLDY    57  56  97 CALM      30.11R
OSAGE BEACH    MOCLDY    61  57  87 CALM      30.11S

$$
MOZ051-052-059>065-010300-
...EAST CENTRAL MISSOURI...

CITY           SKY/WX    TMP DP  RH WIND       PRES   REMARKS
ST LOUIS INTL  MOCLDY    64  59  83 NW8       30.06S
SPIRIT OF STL  CLOUDY    63  60  90 NW5       30.06S
ST CHARLES     CLOUDY    63  61  93 NW9       30.05S

$$
MOZ072>076-082>087-097>100-106>115-010300-
...SOUTH CENTRAL AND SOUTHEAST MISSOURI...

CITY           SKY/WX    TMP DP  RH WIND       PRES   REMARKS
CAPE GIRARDEAU CLOUDY    62  58  86 W6        30.03S
FARMINGTON     CLOUDY    61  58  90 NW7       30.07S
POPLAR BLUFF   CLEAR     61  58  90 CALM      30.06R
WEST PLAINS    CLOUDY    63  56  78 CALM      30.11S

$$



USA.gov is the U.S. government's official web portal to all federal, state and local government web resources and services.